Location: Ballingbuur
(53.0000°N, 5.7667°E)
Time: 07:02:32
(UTC+00:00)

Cosmos 2227 Rocket - Pass Details

Date: 29 November 2020
Orbit: 837 x 847 km, 71.0° (Epoch: 23 January)

Event Time Altitude Azimuth Distance (km) Brightness Sun altitude
Exits shadow 05:39:39 14° 326° (NW) 2,208 3.9 -15.0°
Maximum altitude 05:41:02 15° 342° (NNW) 2,139 4.0 -14.8°
Drops below altitude 10° 05:44:12 10° 17° (NNE) 2,473 4.6 -14.3°
Sets 05:47:51 0° 40° (NE) 3,412 5.7 -13.8°
